Date,TemperatureHighF,TemperatureAvgF,TemperatureLowF,DewpointHighF,DewpointAvgF,DewpointLowF,HumidityHigh,HumidityAvg,HumidityLow,PressureMaxIn,PressureMinIn,WindSpeedMaxMPH,WindSpeedAvgMPH,GustSpeedMaxMPH,PrecipitationSumIn
2013-1-1,40.7,35.7,23.8,30.3,21.8,12.9,62,50,40,29.58,29.44,2,0,15,0.00
2013-1-2,33.4,25.1,16.2,21.9,13.6,6.9,63,51,45,29.69,29.55,1,0,10,0.00
2013-1-3,29.9,20.3,10.1,16.3,6.5,0.5,55,45,26,29.71,29.62,0,0,7,0.00
2013-1-4,42.8,33.0,19.9,28.2,22.4,11.9,71,57,46,29.62,29.50,1,0,10,0.05
2013-1-5,44.9,38.3,29.2,28.4,24.8,19.8,69,53,34,29.78,29.52,1,0,11,0.06
2013-1-6,47.5,38.4,30.2,33.4,29.4,19.5,69,63,45,29.77,29.58,0,0,7,0.05
2013-1-7,42.4,36.8,28.7,31.9,24.7,19.0,70,55,36,29.87,29.60,0,0,9,0.00
2013-1-8,51.0,39.2,27.3,33.6,25.4,13.9,68,51,41,29.85,29.78,0,0,10,0.08
2013-1-9,48.6,41.2,30.3,39.9,28.7,14.3,67,55,41,29.87,29.62,1,0,10,0.01
2013-1-10,49.6,45.1,38.8,31.6,27.0,24.7,56,44,34,29.96,29.64,2,0,16,0.01
2013-1-11,45.8,40.2,32.3,37.0,28.7,19.6,69,57,35,29.95,29.76,0,0,1,0.11
2013-1-12,48.7,45.7,42.4,22.4,20.7,19.2,35,33,31,29.77,29.70,0,0,1,0.02
2013-1-13,56.9,52.3,47.0,27.2,24.1,21.1,32,29,28,29.72,29.61,0,0,2,0.01
2013-1-14,64.9,56.5,45.8,54.2,32.6,25.6,63,37,26,29.78,29.53,1,0,10,0.00
2013-1-15,46.8,43.0,38.6,31.2,28.6,26.5,61,50,43,29.82,29.76,0,0,2,0.00
2013-1-16,40.4,38.0,35.0,30.7,18.7,14.9,68,41,35,29.77,29.51,0,0,0,0.12
2013-1-17,45.7,39.8,33.4,37.2,22.7,15.8,65,45,36,29.68,29.52,0,0,5,0.15
2013-1-18,33.8,26.7,20.6,16.4,6.8,0.4,44,34,24,29.91,29.66,1,0,14,0.00
2013-1-19,52.5,41.8,27.1,37.0,25.6,12.1,67,47,32,29.87,29.55,1,0,15,0.09
2013-1-20,57.6,45.5,32.3,37.2,28.6,12.7,66,47,29,29.57,29.33,2,0,16,0.00
2013-1-21,34.4,29.9,26.6,23.6,13.2,8.6,69,42,31,29.69,29.50,2,0,17,0.00
2013-1-22,28.5,24.3,17.9,19.4,10.4,4.2,67,44,31,29.67,29.46,1,0,12,0.00
2013-1-23,19.8,15.7,11.0,6.4,-0.9,-5.2,54,37,26,29.71,29.66,1,0,12,0.00
2013-1-24,23.7,15.2,7.1,-0.3,-2.9,-5.7,48,35,23,29.76,29.66,2,0,20,0.00
2013-1-25,28.9,20.6,12.7,18.3,0.5,-5.6,69,33,20,29.82,29.66,0,0,8,0.00
2013-1-26,28.3,21.9,16.0,18.1,8.1,-0.3,71,46,26,29.77,29.62,1,0,12,0.00
2013-1-27,33.7,25.4,16.9,9.3,5.6,-1.3,56,36,23,29.92,29.76,1,0,14,0.00
2013-1-28,37.3,30.5,25.0,26.4,11.9,7.6,68,39,27,29.90,29.63,0,0,1,0.00
2013-1-29,39.8,35.5,30.5,18.9,15.1,11.9,40,38,34,29.75,29.63,0,0,2,0.18
2013-1-30,65.8,54.1,39.4,26.3,21.6,16.0,34,25,19,29.72,29.28,1,0,9,0.10
2013-1-31,64.8,51.9,35.5,41.7,23.9,17.3,64,31,19,29.36,28.97,3,0,21,0.43
2013-2-1,36.5,32.7,26.3,19.9,11.6,8.0,47,36,27,29.67,29.36,1,0,13,0.00
2013-2-2,35.3,29.7,22.9,15.6,11.4,7.3,47,39,31,29.78,29.65,1,0,7,0.00
2013-2-3,31.7,29.4,27.2,24.1,16.6,11.2,69,51,40,29.66,29.45,0,0,5,0.00
2013-2-4,33.7,28.9,25.4,21.8,14.0,8.5,70,46,32,29.58,29.44,2,0,13,0.00
2013-2-5,34.8,30.5,26.4,25.5,16.6,12.3,70,48,39,29.64,29.58,0,0,4,0.00
2013-2-6,41.9,35.1,30.2,30.4,16.2,8.5,63,40,32,29.80,29.57,0,0,9,0.03
2013-2-7,34.0,29.2,23.1,19.5,7.8,2.2,51,34,25,29.96,29.81,0,0,11,0.00
2013-2-8,35.9,32.8,20.6,29.4,14.7,-22.7,69,44,8,29.93,29.37,6,1,26,0.00
2013-2-9,25.0,22.3,19.3,19.1,-35.3,-88.1,66,25,1,29.74,29.35,3,0,26,0.00
2013-2-10,41.9,27.8,13.6,27.7,16.3,8.4,70,55,24,29.87,29.74,0,0,5,0.00
2013-2-11,49.0,36.6,22.0,22.7,-43.2,-86.5,67,22,8,29.84,29.37,0,0,1,0.00
2013-2-12,48.4,43.2,38.2,36.3,7.5,-84.4,66,43,1,29.54,29.37,1,0,16,0.39
2013-2-13,47.8,39.9,31.2,32.5,28.7,12.3,69,58,37,29.54,29.42,0,0,2,0.06
2013-2-14,49.2,41.0,33.5,31.9,26.9,22.3,67,52,33,29.62,29.43,0,0,2,0.01
2013-2-15,56.6,43.9,32.3,39.9,-3.2,-86.8,68,37,2,29.62,29.55,0,0,9,0.06
2013-2-16,43.0,38.8,33.7,32.8,-34.8,-86.6,64,24,1,29.59,29.44,0,0,7,0.03
2013-2-17,33.8,24.6,20.1,24.7,-14.7,-88.0,67,33,1,29.44,29.23,3,1,23,0.00
2013-2-18,36.4,26.9,17.2,10.2,5.6,1.2,48,34,21,29.72,29.42,3,0,18,0.00
2013-2-19,52.9,42.1,28.7,41.8,-2.3,-81.2,65,31,3,29.73,29.35,0,0,5,0.44
2013-2-20,47.3,36.7,30.0,27.6,-9.0,-86.2,62,33,34,29.48,29.32,1,0,19,0.00
2013-2-21,35.6,31.1,27.9,21.5,16.8,13.3,62,48,38,29.73,29.48,2,0,16,0.00
2013-2-22,42.8,36.0,27.8,30.0,24.6,19.6,68,56,37,29.87,29.74,0,0,6,0.00
2013-2-23,44.2,39.8,34.6,35.2,3.1,-85.7,67,48,3,29.83,29.57,0,0,3,0.08
2013-2-24,41.5,38.3,35.8,-83.8,-85.4,-86.6,0,0,100,29.57,29.42,0,0,7,0.49
2013-2-25,45.3,40.0,35.1,35.7,-16.2,-87.1,65,33,4,29.77,29.55,0,0,4,0.16
2013-2-26,48.3,41.0,32.8,36.2,-18.3,-88.2,66,32,20,29.84,29.72,0,0,8,0.00
2013-2-27,44.7,42.9,40.6,31.9,-76.2,-84.2,61,3,4,29.72,29.34,4,1,21,1.27
2013-2-28,51.3,43.7,38.4,41.5,-62.9,-85.4,66,9,8,29.39,29.32,0,0,0,0.00
2013-3-1,45.1,42.2,37.4,35.3,-13.7,-85.9,66,36,44,29.42,29.32,0,0,3,0.00
2013-3-2,47.3,41.8,37.4,33.6,31.3,28.9,67,59,48,29.42,29.38,0,0,4,0.00
2013-3-3,45.3,39.9,36.7,36.4,5.6,-85.9,67,48,2,29.40,29.34,0,0,2,0.00
2013-3-4,43.5,37.8,33.0,30.7,5.7,-86.6,66,44,1,29.45,29.35,1,0,14,0.00
2013-3-5,49.1,40.9,34.2,36.8,28.2,-3.7,67,55,13,29.66,29.46,0,0,13,0.00
2013-3-6,42.9,40.3,37.6,33.8,-70.1,-85.9,63,6,1,29.69,29.65,5,1,20,0.15
2013-3-7,39.6,35.5,33.0,27.5,-74.4,-88.0,56,5,2,29.66,29.61,3,0,17,0.17
2013-3-8,45.2,37.3,32.4,34.3,-48.3,-88.3,62,17,11,29.71,29.58,2,0,14,0.00
2013-3-9,49.2,40.6,34.8,35.8,10.0,-87.2,66,44,7,29.84,29.71,0,0,6,0.00
2013-3-10,46.8,39.9,33.1,37.1,-22.4,-88.0,66,30,5,29.88,29.82,0,0,4,0.17
2013-3-11,59.1,47.5,40.5,44.9,-32.1,-84.4,66,21,1,29.83,29.72,0,0,3,0.49
2013-3-12,62.1,54.5,47.5,-73.6,-77.4,-81.0,0,0,100,29.73,29.45,0,0,12,0.33
2013-3-13,57.9,48.8,42.3,38.8,-13.5,-83.4,62,25,3,29.49,29.43,0,0,12,0.01
2013-3-14,42.0,35.7,26.0,28.6,18.3,10.9,57,43,33,29.52,29.44,1,0,15,0.00
2013-3-15,45.6,34.7,23.7,31.8,16.7,8.6,66,42,21,29.54,29.39,0,0,10,0.00
2013-3-16,44.5,39.0,32.7,31.4,17.8,9.3,66,39,23,29.54,29.41,0,0,5,0.00
2013-3-17,41.0,35.2,30.3,20.5,13.6,6.1,56,37,21,29.82,29.54,1,0,12,0.00
2013-3-18,44.2,33.5,23.8,29.0,6.9,-88.0,66,34,6,29.91,29.78,0,0,4,0.00
2013-3-19,39.0,36.1,31.6,-85.1,-86.6,-88.8,0,0,100,29.77,29.37,4,0,18,0.31
2013-3-20,42.7,35.6,30.1,28.0,-17.9,-89.5,67,32,30,29.51,29.43,1,0,16,0.15
2013-3-21,42.5,35.6,28.7,29.8,-1.9,-86.7,67,38,1,29.51,29.37,0,0,2,0.21
2013-3-22,44.6,37.9,32.2,26.4,15.6,-87.3,64,46,3,29.46,29.37,0,0,8,0.09
2013-3-23,46.5,39.7,33.2,28.2,23.2,19.2,67,47,31,29.49,29.39,1,0,16,0.09
2013-3-24,50.4,43.0,35.9,34.6,26.6,23.2,65,47,33,29.50,29.45,0,0,8,0.00
2013-3-25,47.1,42.0,37.6,36.9,33.2,28.5,67,64,47,29.48,29.32,1,0,12,0.00
2013-3-26,54.6,45.5,39.2,33.7,27.8,21.3,66,47,24,29.48,29.33,0,0,8,0.00
2013-3-27,57.0,47.2,36.0,36.1,26.8,24.0,63,41,25,29.54,29.45,0,0,14,0.00
2013-3-28,53.0,46.6,40.0,39.4,-1.1,-84.6,66,38,3,29.63,29.54,0,0,6,0.01
2013-3-29,62.2,50.6,39.5,38.8,34.4,20.5,66,49,30,29.65,29.60,0,0,7,0.00
2013-3-30,60.8,51.2,42.7,37.7,27.3,16.3,66,39,16,29.68,29.62,0,0,8,0.00
2013-3-31,65.7,50.6,34.7,43.7,30.3,21.7,67,45,19,29.70,29.46,0,0,8,0.01
2013-4-1,67.5,51.5,38.3,51.2,-19.0,-81.4,63,23,2,29.49,29.31,2,0,17,0.16
2013-4-2,43.8,39.0,34.5,20.4,16.0,11.7,45,35,25,29.59,29.49,2,0,17,0.00
2013-4-3,49.5,40.8,34.3,22.8,15.5,10.6,52,33,19,29.72,29.57,2,0,17,0.00
2013-4-4,62.2,47.0,34.6,29.4,19.1,13.2,48,31,14,29.81,29.66,0,0,5,0.00
2013-4-5,64.6,50.9,42.8,34.2,29.7,21.9,64,42,19,29.66,29.38,1,0,13,0.00
2013-4-6,51.7,42.2,34.8,30.4,13.7,4.9,52,29,15,29.83,29.55,1,0,14,0.00
2013-4-7,59.8,47.8,33.5,43.3,29.9,17.2,65,45,26,29.83,29.63,0,0,12,0.00
2013-4-8,71.4,57.3,47.6,46.8,-1.6,-80.9,64,27,1,29.68,29.59,0,0,5,0.00
2013-4-9,74.1,60.2,50.4,57.2,12.8,-79.2,65,35,7,29.68,29.53,1,0,10,0.09
2013-4-10,67.5,56.2,51.5,53.4,-21.7,-78.8,65,23,8,29.63,29.53,0,0,2,0.20
2013-4-11,56.0,51.7,48.0,46.5,-28.0,-80.3,66,24,33,29.71,29.51,0,0,3,0.07
2013-4-12,48.0,42.9,40.3,38.7,-50.8,-84.6,66,15,3,29.73,29.49,6,0,18,0.44
2013-4-13,57.7,47.6,39.6,43.5,-21.6,-84.7,65,26,19,29.58,29.47,0,0,6,0.04
2013-4-14,56.2,50.5,43.5,43.0,6.7,-82.1,64,34,5,29.76,29.57,0,0,10,0.00
2013-4-15,61.0,49.9,38.5,44.2,36.5,22.5,67,55,33,29.87,29.76,0,0,6,0.00
2013-4-16,69.2,57.3,43.2,52.6,17.5,-83.0,66,37,2,29.88,29.66,0,0,8,0.00
2013-4-17,71.5,62.8,55.1,49.5,26.7,-73.9,64,31,2,29.83,29.66,0,0,9,0.00
2013-4-18,69.8,56.7,44.7,49.0,37.4,30.6,67,45,26,29.89,29.72,0,0,6,0.00
2013-4-19,79.7,68.3,57.5,64.9,-27.1,-75.5,63,18,2,29.72,29.41,1,0,11,0.00
2013-4-20,70.5,58.3,48.3,45.0,-15.3,-79.9,60,20,30,29.76,29.37,1,0,11,0.51
2013-4-21,57.3,47.3,39.5,32.3,24.9,20.4,56,38,21,30.05,29.77,1,0,8,0.00
2013-4-22,52.9,46.0,38.5,38.8,31.7,9.3,67,53,26,30.11,30.00,2,0,13,0.00
2013-4-23,45.9,44.9,43.6,37.1,-50.9,-82.9,67,17,8,30.00,29.71,0,0,9,0.04
2013-4-24,82.2,60.0,45.2,56.5,-11.5,-82.0,64,23,18,29.70,29.49,0,0,5,0.01
2013-4-25,69.4,60.1,52.2,43.6,1.4,-78.3,63,23,2,29.79,29.52,0,0,8,0.05
2013-4-26,60.3,53.8,47.4,44.0,21.2,-79.6,65,38,1,29.89,29.79,0,0,8,0.00
2013-4-27,66.9,56.6,42.9,45.1,-4.5,-83.2,60,24,1,29.89,29.81,0,0,3,0.00
2013-4-28,72.4,59.9,44.5,47.7,20.9,-82.3,65,32,18,29.84,29.76,0,0,7,0.00
2013-4-29,76.4,63.3,52.1,51.7,27.4,-78.5,64,32,1,29.80,29.74,0,0,6,0.00
2013-4-30,71.4,60.9,49.2,43.7,32.8,21.0,66,35,14,29.86,29.79,0,0,6,0.00
2013-5-1,70.6,59.6,43.9,42.9,32.9,-82.2,66,38,1,29.92,29.86,0,0,7,0.00
2013-5-2,81.4,60.3,48.1,51.8,28.2,-80.6,66,42,2,29.93,29.85,2,0,12,0.00
2013-5-3,61.9,54.3,48.0,48.4,27.5,-80.6,66,46,1,29.96,29.87,1,0,9,0.00
2013-5-4,60.1,52.8,44.7,49.4,-2.4,-82.3,65,34,6,29.86,29.82,0,0,6,0.00
2013-5-5,61.4,52.6,43.1,46.0,-5.8,-83.0,65,31,2,29.84,29.79,0,0,6,0.00
2013-5-6,72.3,55.4,43.8,53.3,-30.4,-82.7,63,19,7,29.81,29.72,0,0,5,0.00
2013-5-7,79.9,66.7,48.8,63.0,10.5,-80.2,62,33,5,29.74,29.68,0,0,5,0.00
2013-5-8,73.3,66.0,58.2,45.7,-66.6,-75.4,42,1,1,29.75,29.66,0,0,7,0.19
2013-5-9,73.3,64.1,61.4,47.9,-71.0,-73.9,39,0,3,29.66,29.56,0,0,2,0.62
2013-5-10,83.7,70.9,59.9,64.6,5.4,-74.6,63,31,3,29.60,29.56,0,0,4,0.01
2013-5-11,76.3,69.0,63.6,65.9,-30.7,-72.8,64,16,3,29.58,29.43,4,1,11,0.09
2013-5-12,76.9,66.6,55.4,59.7,-19.2,-72.7,59,18,10,29.51,29.35,4,1,12,0.09
2013-5-13,64.3,55.8,49.0,37.3,32.7,29.2,53,38,24,29.65,29.51,4,2,13,0.00
2013-5-14,63.1,55.2,45.3,38.7,33.8,29.9,66,41,26,29.66,29.61,4,1,13,0.00
2013-5-15,71.1,58.4,42.4,52.5,1.1,-83.4,66,27,1,29.66,29.42,4,1,12,0.01
2013-5-16,86.6,72.2,52.8,54.9,10.8,-78.1,62,19,15,29.50,29.39,5,2,16,0.00
2013-5-17,74.7,64.6,57.1,49.7,44.2,37.3,64,44,25,29.77,29.50,4,2,12,0.00
2013-5-18,76.9,65.6,51.3,52.4,24.3,-78.8,64,34,1,29.82,29.76,5,1,12,0.00
2013-5-19,78.9,62.5,53.9,57.1,-14.6,-77.5,64,23,1,29.84,29.77,6,1,10,0.09
2013-5-20,87.9,72.3,60.7,71.7,-25.9,-74.2,61,17,2,29.77,29.57,4,1,9,0.14
2013-5-21,82.4,65.9,55.3,70.0,-49.0,-76.9,63,9,1,29.64,29.54,6,2,13,0.15
2013-5-22,71.1,60.9,54.2,-69.2,-74.1,-77.4,0,0,100,29.67,29.56,5,2,10,0.09
2013-5-23,81.6,69.7,59.2,-64.2,-69.9,-75.0,0,0,100,29.58,29.51,4,1,12,0.15
2013-5-24,76.7,67.7,53.5,-66.5,-70.8,-77.8,0,0,100,29.52,29.41,2,1,8,0.86
2013-5-25,56.1,52.1,46.0,-76.5,-78.5,-81.6,0,0,100,29.51,29.44,2,0,9,0.37
2013-5-26,63.1,53.3,44.6,46.0,-9.0,-82.3,65,30,4,29.69,29.44,0,0,10,0.06
2013-5-27,77.7,63.0,45.0,49.7,16.2,-82.1,64,27,1,29.74,29.67,0,0,8,0.00
2013-5-28,75.9,64.6,49.0,58.3,20.5,-80.1,63,33,4,29.77,29.72,0,0,4,0.00
2013-5-29,75.1,67.8,63.1,52.9,-61.3,-73.1,57,4,4,29.75,29.62,0,0,3,0.99
2013-5-30,94.2,80.8,67.4,73.8,-1.4,-70.9,62,23,4,29.68,29.63,0,0,4,0.01
2013-5-31,99.8,86.7,69.9,74.2,24.6,-69.7,61,28,21,29.68,29.58,0,0,5,0.00
2013-6-1,98.4,86.1,72.6,73.0,52.3,-68.3,62,42,4,29.61,29.54,0,0,10,0.00
2013-6-2,95.5,83.5,73.8,74.9,30.0,-67.7,61,33,2,29.55,29.45,1,0,19,0.00
2013-6-3,83.7,75.3,68.2,72.1,-18.2,-69.5,63,20,1,29.53,29.47,0,0,4,0.38
2013-6-4,77.6,68.2,57.2,50.5,47.1,45.1,57,42,30,29.69,29.52,0,0,6,0.00
2013-6-5,81.0,69.2,56.2,54.3,42.6,-76.2,66,39,3,29.75,29.68,0,0,4,0.00
2013-6-6,80.8,70.2,61.3,58.3,52.6,45.6,65,49,29,29.75,29.69,0,0,3,0.00
2013-6-7,66.8,60.5,58.1,53.1,-71.9,-75.4,55,1,4,29.70,29.51,5,0,11,2.47
2013-6-8,85.0,68.9,58.0,68.9,-13.3,-75.5,63,24,1,29.63,29.38,0,0,6,0.66
2013-6-9,85.2,74.6,63.3,63.5,13.0,-72.9,63,29,32,29.73,29.63,0,0,4,0.00
2013-6-10,74.0,67.0,61.7,60.9,-18.6,-73.6,63,22,5,29.76,29.64,0,0,6,0.66
2013-6-11,69.1,63.3,59.4,-70.1,-72.9,-74.8,0,0,100,29.64,29.35,2,0,12,1.13
2013-6-12,75.0,67.7,61.8,61.2,-3.1,-73.6,65,30,12,29.51,29.35,0,0,12,0.04
2013-6-13,73.6,63.5,56.6,62.2,-34.9,-76.1,64,16,1,29.51,29.42,0,0,3,0.63
2013-6-14,81.3,65.4,55.5,63.6,-10.8,-76.7,63,25,14,29.48,29.40,0,0,9,1.12
2013-6-15,85.6,73.2,60.7,56.8,29.6,-74.1,63,32,2,29.59,29.48,0,0,3,0.00
2013-6-16,81.5,72.5,58.9,65.6,27.8,-75.0,62,34,5,29.59,29.44,0,0,4,0.00
2013-6-17,91.8,75.5,63.8,68.9,-1.3,-72.6,63,24,7,29.57,29.48,0,0,6,0.47
2013-6-18,79.5,68.6,64.3,68.6,-51.7,-72.4,63,8,6,29.59,29.55,0,0,3,0.38
2013-6-19,79.0,69.5,61.1,60.4,2.0,-74.0,63,26,16,29.72,29.57,0,0,5,0.04
2013-6-20,86.0,73.3,57.5,61.7,16.4,-75.6,62,26,2,29.79,29.72,0,0,6,0.00
2013-6-21,91.0,77.6,64.3,69.4,45.7,-72.3,63,42,3,29.79,29.74,0,0,5,0.00
2013-6-22,90.8,79.1,67.9,66.9,61.3,14.9,63,50,11,29.77,29.70,0,0,4,0.00
2013-6-23,95.5,82.6,70.8,74.6,66.5,38.8,64,53,21,29.73,29.62,0,0,8,0.00
2013-6-24,99.3,86.1,75.6,77.1,4.4,-66.9,61,23,1,29.64,29.54,0,0,8,0.13
2013-6-25,97.7,85.4,74.3,74.4,21.6,-67.6,61,30,21,29.58,29.45,0,0,6,0.01
2013-6-26,89.6,81.3,74.4,75.2,-12.9,-67.5,62,21,1,29.53,29.45,0,0,5,0.04
2013-6-27,76.7,70.4,66.8,-66.4,-69.5,-71.2,0,0,100,29.55,29.48,0,0,3,0.13
2013-6-28,89.0,76.0,65.1,76.8,-40.3,-71.9,63,11,1,29.48,29.30,1,0,7,0.23
2013-6-29,90.3,80.6,75.8,76.2,-17.4,-66.8,62,19,5,29.46,29.32,0,0,9,0.00
2013-6-30,91.5,81.6,74.9,77.8,-14.4,-67.2,63,20,6,29.59,29.46,0,0,6,0.00
2013-7-1,88.0,80.9,76.7,-61.1,-64.4,-66.4,0,0,100,29.68,29.59,0,0,4,0.07
2013-7-2,90.4,79.7,68.5,75.3,-48.5,-70.3,61,6,4,29.76,29.68,1,0,5,0.00
2013-7-3,95.4,82.5,67.9,78.0,-7.6,-70.6,61,21,2,29.76,29.71,0,0,7,0.00
2013-7-4,98.7,88.4,78.4,79.8,7.0,-65.6,61,25,1,29.76,29.69,1,0,9,0.00
2013-7-5,100.3,90.3,81.7,80.0,18.0,-64.1,61,28,4,29.73,29.65,0,0,6,0.00
2013-7-6,96.5,88.9,81.6,79.2,21.9,-64.1,61,31,26,29.67,29.61,0,0,4,0.00
2013-7-7,98.2,86.2,77.0,79.8,29.7,-66.3,63,37,2,29.64,29.56,0,0,4,0.02
2013-7-8,88.8,82.1,74.7,64.0,-49.8,-67.5,46,4,1,29.65,29.57,0,0,7,0.00
2013-7-9,78.4,73.7,69.8,0.0,-67.5,-69.8,0,0,100,29.70,0.00,0,0,3,0.00
2013-7-10,91.8,79.0,70.8,79.5,-38.5,-69.3,63,11,3,29.67,29.50,1,0,5,0.08
2013-7-11,87.6,81.5,77.3,74.4,-19.1,-66.1,60,18,1,29.58,29.49,0,0,3,0.10
2013-7-12,79.1,75.3,72.4,66.1,24.7,-68.5,65,41,2,29.75,29.58,1,0,9,0.00
2013-7-13,82.3,75.2,70.7,-63.8,-67.2,-69.3,0,0,100,29.82,29.75,0,0,2,0.03
2013-7-14,95.9,84.4,74.8,79.5,-1.6,-67.4,62,24,1,29.82,29.75,0,0,2,0.00
2013-7-15,96.5,86.7,76.8,78.3,10.7,-66.4,62,28,3,29.75,29.69,0,0,4,0.00
2013-7-16,98.7,86.9,77.2,76.3,25.4,-66.2,63,32,13,29.73,29.69,0,0,5,0.00
2013-7-17,101.1,88.9,77.0,79.4,26.8,-66.3,62,28,2,29.73,29.62,0,0,4,0.00
2013-7-18,96.9,87.6,82.2,79.2,31.3,-63.9,65,35,1,29.63,29.59,0,0,7,0.00
2013-7-19,102.3,91.7,80.7,81.5,21.0,-64.6,61,27,1,29.59,29.44,1,0,8,0.00
2013-7-20,87.6,85.2,81.9,74.2,72.5,70.3,62,60,57,29.50,29.47,0,0,0,0.00
2013-7-21,83.1,77.2,76.3,71.0,65.7,0.0,64,59,46,29.60,29.50,0,0,6,0.00
2013-7-22,79.9,73.8,74.1,67.7,-43.3,-67.7,60,6,1,29.58,0.00,0,0,7,0.00
2013-7-23,85.4,77.4,73.3,0.0,-64.6,-68.1,0,0,100,29.55,29.33,1,0,6,1.17
2013-7-24,90.6,81.9,71.4,76.0,9.8,-67.0,63,30,27,29.60,29.36,0,0,6,0.00
2013-7-25,71.3,65.8,63.4,59.6,9.7,-72.9,66,35,2,29.69,29.60,1,0,6,0.67
2013-7-26,77.3,70.1,64.2,-66.2,-69.7,-72.5,0,0,100,29.66,29.58,1,0,10,0.64
2013-7-27,90.8,78.0,64.1,73.0,-1.9,-72.5,63,24,1,29.66,29.61,0,0,4,0.00
2013-7-28,86.4,76.6,71.8,58.5,-60.6,-68.8,38,2,2,29.64,29.60,0,0,6,0.02
2013-7-29,90.0,78.3,71.8,75.9,-26.8,-68.8,63,15,1,29.65,29.60,0,0,7,0.39
2013-7-30,87.7,77.6,65.9,67.4,12.5,-71.7,64,29,8,29.68,29.64,0,0,1,0.01
2013-7-31,88.7,78.4,66.5,68.1,36.5,-71.3,64,36,4,29.71,29.65,0,0,0,0.00
2013-8-1,87.6,67.8,69.1,70.6,5.7,-70.1,63,25,4,29.66,29.56,0,0,0,0.00
2013-8-2,88.7,33.9,75.3,71.4,8.5,-67.1,60,12,11,29.51,0.00,4,1,13,0.00
2013-8-3,85.1,79.9,72.5,68.6,61.6,44.8,64,49,33,29.52,29.48,3,1,10,0.00
2013-8-4,85.5,74.9,66.0,64.7,46.1,-71.0,65,43,1,29.56,29.48,3,0,8,0.00
2013-8-5,81.5,71.3,60.9,59.1,41.1,-74.0,66,39,4,29.66,29.55,3,0,9,0.00
2013-8-6,85.2,71.3,57.2,60.9,31.8,-75.9,66,37,1,29.72,29.66,2,0,7,0.00
2013-8-7,87.1,74.4,61.8,65.4,13.1,-73.7,64,28,8,29.74,29.69,2,0,7,0.00
2013-8-8,86.3,77.4,70.9,71.8,-20.2,-69.2,64,16,2,29.71,29.63,2,0,6,0.04
2013-8-9,80.2,77.6,75.7,-64.8,-66.1,-67.0,0,0,100,29.64,29.47,3,1,8,1.14
2013-8-10,88.9,79.6,70.8,69.3,11.3,-68.5,63,27,2,29.63,29.49,2,0,8,0.00
2013-8-11,85.3,74.1,60.4,63.6,29.0,-74.3,65,35,2,29.68,29.62,1,0,4,0.00
2013-8-12,88.3,77.1,66.0,66.3,13.4,-71.6,63,27,5,29.64,29.57,0,0,4,0.00
2013-8-13,82.0,74.9,70.5,70.2,-41.2,-69.4,63,11,2,29.58,29.43,0,0,4,0.00
2013-8-14,79.8,72.2,66.3,59.2,14.5,-71.3,64,33,23,29.60,29.41,1,0,6,0.00
2013-8-15,82.8,71.5,59.5,60.0,25.3,-74.7,65,34,7,29.70,29.60,0,0,4,0.00
2013-8-16,85.5,73.3,60.2,62.5,18.3,-74.4,64,31,9,29.75,29.69,0,0,4,0.00
2013-8-17,83.6,74.2,64.0,65.2,19.0,-72.6,64,32,1,29.80,29.75,0,0,3,0.00
2013-8-18,85.3,75.6,65.0,68.0,17.2,-72.0,64,33,3,29.80,29.68,0,0,4,0.00
2013-8-19,87.4,77.0,65.2,68.0,19.9,-72.0,64,32,6,29.68,29.59,0,0,3,0.00
2013-8-20,91.9,80.6,69.7,70.1,42.5,-69.8,64,40,1,29.68,29.61,0,0,2,0.00
2013-8-21,94.0,80.6,67.8,71.3,21.5,-70.7,63,32,2,29.71,29.64,0,0,2,0.00
2013-8-22,91.7,81.7,71.3,77.9,7.7,-69.1,63,28,2,29.65,29.51,1,0,4,0.00
2013-8-23,84.0,77.1,70.8,66.3,11.5,-68.1,62,29,5,29.71,29.51,1,0,6,0.00
2013-8-24,81.5,71.1,60.7,56.3,50.1,42.3,66,45,24,29.84,29.71,0,0,3,0.00
2013-8-25,88.8,74.1,58.3,61.2,24.5,-75.3,66,30,3,29.85,29.74,1,0,4,0.00
2013-8-26,85.8,77.4,70.8,71.7,60.2,-69.3,64,54,2,29.74,29.54,4,0,13,0.00
2013-8-27,85.3,78.1,72.4,72.7,-20.5,-68.5,63,18,6,29.56,29.52,2,0,8,0.04
2013-8-28,87.2,76.0,68.1,72.7,-16.9,-70.6,63,21,1,29.61,29.54,3,0,9,0.00
2013-8-29,70.8,68.9,66.4,-69.3,-70.2,-71.4,0,0,100,29.67,29.60,3,1,9,0.01
2013-8-30,89.0,76.4,67.2,72.6,-18.4,-71.0,63,19,3,29.65,29.51,2,0,7,0.00
2013-8-31,86.3,79.6,73.5,-61.9,-65.1,-67.9,0,0,100,29.52,29.49,1,0,6,0.00
2013-9-1,85.3,78.0,74.7,-62.4,-65.8,-67.5,0,0,100,29.55,29.50,1,0,7,0.72
2013-9-2,87.4,79.7,75.3,9.3,-64.3,-67.1,5,0,1,29.55,29.44,2,0,9,0.07
2013-9-3,86.5,79.0,70.6,74.7,9.0,-67.3,65,30,4,29.50,29.43,0,0,4,0.00
2013-9-4,85.9,74.9,63.9,65.7,16.1,-72.6,64,29,2,29.58,29.50,0,0,6,0.00
2013-9-5,74.7,68.7,58.8,56.4,-6.9,-71.1,57,4,2,29.57,29.54,0,0,1,0.00
2013-9-6,75.3,63.6,52.3,0.0,0.0,0.0,0,0,100,0.00,0.00,0,0,0,0.00
2013-9-7,84.7,69.9,54.8,0.0,0.0,0.0,0,0,100,0.00,0.00,0,0,0,0.00
2013-9-8,79.7,70.0,57.4,0.0,0.0,0.0,0,0,100,0.00,0.00,0,0,0,0.00
2013-9-9,75.5,63.8,50.6,0.0,0.0,0.0,0,0,100,0.00,0.00,0,0,0,0.00
2013-9-10,81.0,71.7,60.0,0.0,0.0,0.0,0,0,100,0.00,0.00,0,0,0,0.00
2013-9-11,99.9,85.8,72.9,0.0,0.0,0.0,0,0,100,0.00,0.00,0,0,0,0.00
2013-9-12,92.2,82.5,72.0,0.0,0.0,0.0,0,0,100,0.00,0.00,0,0,0,0.00
2013-9-13,85.0,73.7,64.1,0.0,0.0,0.0,0,0,100,0.00,0.00,0,0,0,0.00
2013-9-14,71.9,66.1,58.4,0.0,0.0,0.0,0,0,100,0.00,0.00,0,0,0,0.00
2013-9-15,76.8,65.3,54.3,0.0,0.0,0.0,0,0,100,0.00,0.00,0,0,0,0.00
2013-9-16,71.9,63.5,53.8,0.0,0.0,0.0,0,0,100,0.00,0.00,0,0,0,0.00
2013-9-17,68.5,56.4,45.5,0.0,0.0,0.0,0,0,100,0.00,0.00,0,0,0,0.00
2013-9-18,78.6,65.1,48.5,0.0,0.0,0.0,0,0,100,0.00,0.00,0,0,0,0.00
2013-9-19,84.4,67.9,52.3,0.0,0.0,0.0,0,0,100,0.00,0.00,0,0,0,0.00
2013-9-20,83.8,68.8,54.6,0.0,0.0,0.0,0,0,100,0.00,0.00,0,0,0,0.00
2013-9-21,80.4,70.6,60.9,0.0,0.0,0.0,0,0,100,0.00,0.00,0,0,0,0.00
2013-9-22,75.4,69.6,58.2,0.0,0.0,0.0,0,0,100,0.00,0.00,0,0,0,0.00
2013-9-23,67.4,58.4,51.3,0.0,0.0,0.0,0,0,100,0.00,0.00,0,0,0,0.00
2013-9-24,71.1,58.8,48.2,0.0,0.0,0.0,0,0,100,0.00,0.00,0,0,0,0.00
2013-9-25,71.5,60.4,50.8,0.0,0.0,0.0,0,0,100,0.00,0.00,0,0,0,0.00
2013-9-26,69.7,63.2,58.8,0.0,0.0,0.0,0,0,100,0.00,0.00,0,0,0,0.00
2013-9-27,69.4,63.2,55.6,56.3,-7.4,-76.7,66,3,1,29.79,0.00,0,0,0,0.00
2013-9-28,75.8,63.9,54.9,60.9,-20.7,-77.0,65,22,1,29.83,29.79,1,0,8,0.00
2013-9-29,70.5,59.2,51.5,56.5,-31.1,-78.7,65,17,2,29.80,29.71,0,0,5,0.00
2013-9-30,71.9,60.7,54.3,57.1,-31.8,-77.4,65,18,1,29.71,29.61,1,0,4,0.00
2013-10-1,80.0,65.8,52.6,60.4,-7.9,-78.1,65,23,4,29.61,29.53,1,0,5,0.00
2013-10-2,84.2,71.5,59.9,65.8,3.9,-74.6,64,30,2,29.59,29.51,1,0,7,0.00
2013-10-3,82.1,70.0,58.0,59.8,22.3,-75.6,65,34,8,29.68,29.59,0,0,2,0.00
2013-10-4,71.4,64.9,57.2,54.2,-34.6,-75.9,60,11,1,29.68,29.65,0,0,1,0.04
2013-10-5,73.7,67.6,63.9,61.2,-32.3,-72.6,66,17,2,29.70,29.66,0,0,4,0.00
2013-10-6,66.9,61.6,58.9,-71.2,-73.8,-75.0,0,0,100,29.77,29.70,1,0,4,0.35
2013-10-7,81.4,70.8,62.0,-64.3,-69.4,-73.5,0,0,100,29.71,29.51,2,0,15,0.26
2013-10-8,69.8,62.5,54.8,50.0,-1.1,-76.1,64,28,26,29.86,29.56,0,0,6,0.01
2013-10-9,64.1,56.9,49.3,51.3,11.7,-80.0,67,39,1,29.93,29.86,0,0,6,0.00
2013-10-10,66.4,57.4,48.7,56.5,-50.0,-80.3,65,11,1,29.86,29.74,0,0,3,0.00
2013-10-11,74.2,62.7,55.6,60.9,-11.6,-76.7,66,25,3,29.74,29.69,0,0,4,0.00
2013-10-12,63.6,59.4,54.8,-9.6,-74.0,-77.0,4,0,1,29.87,29.72,1,0,7,0.00
2013-10-13,63.3,56.4,47.7,53.0,-33.2,-80.8,67,20,1,29.91,29.86,0,0,4,0.00
2013-10-14,69.1,55.8,42.8,54.3,-20.0,-83.2,65,21,1,29.88,29.78,0,0,3,0.00
2013-10-15,71.7,61.5,52.7,58.9,-16.8,-78.2,65,23,4,29.79,29.74,0,0,0,0.00
2013-10-16,66.5,60.2,52.9,-71.4,-74.5,-78.0,0,0,100,29.74,29.57,0,0,4,0.00
2013-10-17,77.1,66.4,57.3,65.5,-40.3,-75.9,65,14,13,29.58,29.45,1,0,4,0.01
2013-10-18,71.4,65.3,55.2,56.4,-1.8,-72.7,66,29,1,29.57,29.38,0,0,9,0.05
2013-10-19,71.6,59.3,45.5,52.6,5.7,-81.9,67,33,4,29.61,29.47,1,0,4,0.00
2013-10-20,65.5,58.0,47.5,51.9,4.9,-78.0,67,31,4,29.64,29.43,0,0,8,0.01
2013-10-21,71.2,57.0,42.6,48.2,3.4,-83.4,67,30,1,29.70,29.63,0,0,4,0.00
2013-10-22,71.8,58.5,45.7,57.0,-0.6,-81.8,66,33,2,29.63,29.44,0,0,4,0.00
2013-10-23,56.6,51.2,42.3,42.4,13.0,-83.5,68,40,1,29.50,29.37,0,0,0,0.00
2013-10-24,57.4,50.5,43.3,40.2,33.3,25.4,68,48,28,29.55,29.40,0,0,9,0.00
2013-10-25,53.5,45.2,36.1,39.6,9.6,-86.6,68,39,1,29.72,29.55,0,0,10,0.00
2013-10-26,59.5,47.6,34.1,40.5,-5.3,-87.5,67,28,1,29.73,29.55,0,0,9,0.00
2013-10-27,58.4,52.7,46.8,43.9,11.6,-80.6,66,36,1,29.66,29.51,0,0,8,0.02
2013-10-28,62.4,49.6,37.9,39.6,7.9,-85.7,67,34,2,29.85,29.66,1,0,10,0.00
2013-10-29,53.1,43.6,35.7,36.0,27.2,-8.4,67,49,11,29.91,29.85,0,0,3,0.00
2013-10-30,57.4,46.0,38.2,47.0,-63.1,-85.5,66,8,1,29.86,29.75,0,0,2,0.04
2013-10-31,66.8,53.3,38.6,-71.2,-78.0,-85.3,0,0,100,29.78,29.50,1,0,9,0.05
2013-11-1,74.3,68.7,62.9,60.7,-36.4,-73.1,65,12,4,29.49,29.28,1,0,24,0.09
2013-11-2,71.4,61.1,50.9,52.7,-15.4,-79.0,65,22,1,29.45,29.36,0,0,3,0.02
2013-11-3,56.1,45.9,37.4,36.8,-32.4,-83.7,62,18,30,29.89,29.45,0,0,5,0.01
2013-11-4,46.4,38.1,32.3,28.4,21.7,14.8,69,47,25,30.07,29.89,0,0,6,0.00
2013-11-5,55.0,43.8,32.1,38.5,29.7,11.5,68,52,35,30.08,29.95,0,0,2,0.00
2013-11-6,65.3,55.4,43.8,51.2,20.6,-81.2,67,41,1,29.95,29.65,0,0,4,0.00
2013-11-7,70.4,58.7,45.6,38.9,-61.1,-80.0,67,6,3,29.66,29.42,1,0,9,0.28
2013-11-8,51.5,44.4,36.8,39.5,31.9,24.6,70,55,40,29.69,29.51,1,0,18,0.00
2013-11-9,49.6,43.9,36.3,32.1,27.3,23.0,63,47,32,29.76,29.65,0,0,6,0.00
2013-11-10,60.7,50.6,45.6,47.2,6.3,-81.8,68,40,4,29.65,29.46,0,0,9,0.05
2013-11-11,56.4,49.6,43.2,36.4,31.2,26.5,61,44,28,29.69,29.53,0,0,10,0.00
2013-11-12,53.6,40.2,32.5,42.4,-2.1,-85.5,67,37,1,29.75,29.55,1,0,14,0.16
2013-11-13,40.4,33.9,28.1,23.3,18.6,13.7,68,48,31,29.81,29.73,0,0,6,0.01
2013-11-14,55.6,44.4,33.8,28.5,24.0,19.7,52,40,27,29.73,29.65,0,0,8,0.00
2013-11-15,65.9,50.1,35.0,37.4,26.6,18.6,66,39,14,29.75,29.69,0,0,2,0.00
2013-11-16,64.2,51.1,40.8,38.4,32.6,24.7,68,47,21,29.82,29.74,0,0,3,0.00
2013-11-17,60.8,48.7,38.7,51.2,-31.2,-85.2,69,21,1,29.82,29.69,0,0,2,0.03
2013-11-19,45.5,41.6,34.7,24.5,22.0,19.8,48,40,34,29.80,29.55,1,0,12,0.00
2013-11-20,45.6,37.2,32.2,20.2,17.7,14.0,51,40,25,30.02,29.80,0,0,10,0.00
2013-11-21,52.5,41.4,28.8,33.8,23.6,17.7,68,45,27,30.03,29.87,0,0,2,0.00
2013-11-22,52.1,49.3,46.0,39.8,-47.1,-81.2,67,17,2,29.86,29.51,0,0,0,0.21
2013-11-23,52.7,44.4,33.2,37.2,4.9,-80.3,68,37,6,29.57,29.49,2,0,17,0.00
2013-11-24,33.6,27.3,23.6,24.2,9.2,-0.7,68,38,22,29.75,29.49,8,1,23,0.00
2013-11-25,38.1,29.8,21.0,20.2,7.4,-3.8,46,33,17,29.86,29.75,0,0,6,0.00
2013-11-26,46.8,42.1,36.0,36.6,9.9,-83.0,68,38,1,29.83,29.65,0,0,7,0.11
2013-11-27,66.6,55.8,41.5,-71.3,-76.6,-83.8,0,0,100,29.64,29.12,1,0,14,1.67
2013-11-28,41.6,35.2,30.3,30.6,2.7,-84.5,66,37,1,29.90,29.28,2,0,17,0.00
2013-11-29,37.7,32.0,26.8,22.9,15.0,5.3,67,44,26,30.09,29.90,0,0,6,0.00
2013-11-30,38.1,30.8,21.5,27.1,19.2,14.2,66,54,43,30.13,29.90,0,0,2,0.00
2013-12-1,43.1,36.5,37.2,32.1,-38.5,-85.4,69,21,1,29.89,29.63,0,0,1,0.12
2013-12-2,44.7,42.4,39.9,-82.3,-83.4,-84.6,0,0,100,29.63,29.58,1,0,4,0.00
2013-12-3,52.7,43.4,39.0,42.3,-42.8,-85.1,68,18,2,29.59,29.53,0,0,1,0.00
2013-12-4,48.4,40.7,35.6,36.7,-21.1,-86.7,69,29,1,29.75,29.59,0,0,3,0.01
2013-12-5,55.9,47.2,36.1,-76.6,-80.9,-86.5,0,0,100,29.76,29.57,0,0,2,0.00
2013-12-6,61.1,53.1,38.2,44.5,-53.5,-85.4,68,12,3,29.71,29.53,0,0,3,0.28
2013-12-7,42.6,38.2,32.8,33.8,-24.8,-86.0,70,32,2,29.91,29.67,0,0,9,0.18
2013-12-8,35.5,33.4,28.1,26.5,20.6,17.0,71,52,44,30.00,29.91,0,0,0,0.01
2013-12-9,44.4,37.9,30.5,26.2,-72.5,-89.3,70,6,2,29.94,29.55,1,0,4,0.41
2013-12-10,40.1,36.4,29.8,24.5,-70.0,-88.5,67,9,2,29.62,29.49,1,0,14,0.03
2013-12-11,36.0,31.2,27.4,24.7,23.5,20.2,70,64,48,29.76,29.62,0,0,7,0.00
2013-12-12,29.5,26.2,21.1,24.3,13.5,4.8,71,49,30,29.80,29.67,1,0,10,0.00
2013-12-13,34.0,27.3,18.8,23.9,16.3,7.2,70,54,41,29.87,29.62,0,0,7,0.00
2013-12-14,33.4,20.7,14.5,18.2,-20.8,-89.9,71,33,2,30.01,29.71,0,0,4,0.00
2013-12-15,38.2,32.5,24.8,-82.7,-86.8,-89.9,0,0,100,29.71,29.26,2,0,16,0.00
2013-12-16,32.3,28.9,23.2,22.2,-15.8,-89.8,66,34,4,29.75,29.46,0,0,6,0.00
2013-12-17,24.5,19.2,11.8,15.9,-24.6,-88.1,72,38,4,29.81,29.59,0,0,2,0.00
2013-12-18,37.8,29.7,20.7,27.4,-25.5,-90.0,70,35,6,29.67,29.54,0,0,5,0.00
2013-12-19,47.1,38.4,30.0,33.7,29.0,23.1,70,62,43,29.69,29.59,0,0,6,0.00
2013-12-20,57.6,46.4,36.3,43.0,12.3,-86.4,70,43,1,29.70,29.56,0,0,2,0.00
2013-12-21,62.3,53.7,45.6,53.7,-2.1,-81.4,69,36,4,29.59,29.53,0,0,2,0.62
2013-12-22,58.0,46.0,39.1,-75.5,-81.5,-85.0,0,0,100,29.64,29.49,1,0,10,0.00
2013-12-23,42.5,38.9,36.5,-83.4,-85.1,-86.3,0,0,100,29.68,29.60,0,0,0,0.73
2013-12-24,42.0,37.0,31.1,32.2,5.2,-85.1,69,44,38,29.75,29.65,0,0,4,0.00
2013-12-25,31.3,24.1,17.8,19.2,11.0,5.6,62,46,36,29.97,29.75,1,0,13,0.00
2013-12-26,38.6,31.5,22.9,27.2,-29.4,-88.9,70,32,17,29.94,29.68,0,0,2,0.00
2013-12-27,38.6,33.6,28.1,28.1,-17.1,-90.0,69,37,2,29.80,29.74,0,0,6,0.03
2013-12-28,51.7,38.9,29.6,32.9,25.1,1.9,70,52,21,29.76,29.61,0,0,7,0.00
2013-12-29,48.4,40.4,33.4,39.7,-53.4,-87.9,67,13,1,29.65,29.24,1,0,16,1.22
2013-12-30,45.7,37.3,23.4,35.3,-24.4,-85.2,62,27,8,29.73,29.31,1,0,13,0.01
2013-12-31,30.8,24.2,18.1,22.2,11.4,1.3,69,48,36,29.74,29.64,0,0,4,0.00
2014-1-1,32.4,27.3,22.4,19.3,13.6,10.0,62,47,36,29.86,29.74,0,0,9,0.00
2014-1-2,27.2,16.8,5.0,21.1,-78.9,-96.6,71,5,4,29.85,29.53,1,0,14,0.00